Time,TemperatureF,DewpointF,PressureIn,WindDirection,WindDirectionDegrees,WindSpeedMPH,WindSpeedGustMPH,Humidity,HourlyPrecipIn,Conditions,Clouds,dailyrainin,SoftwareType,DateUTC
2013-07-16 00:11:00,69.0,54.0,30.15,SE,134,14.0,16.0,59,-99.99,,,-99.99,,2013-07-16 06:11:00,
2013-07-16 00:22:00,69.0,54.0,30.15,SE,135,13.0,16.0,59,-99.99,,,-99.99,,2013-07-16 06:22:00,
2013-07-16 00:43:00,68.0,55.0,30.16,ESE,120,12.0,15.0,62,-99.99,,,-99.99,,2013-07-16 06:43:00,
2013-07-16 01:22:00,67.0,55.0,30.16,SE,135,12.0,14.0,66,-99.99,,,-99.99,,2013-07-16 07:22:00,
2013-07-16 02:43:00,67.0,55.0,30.16,SSE,150,9.0,10.0,65,-99.99,,,-99.99,,2013-07-16 08:43:00,
2013-07-16 02:52:00,67.0,55.0,30.16,SE,141,7.0,9.0,66,-99.99,,,-99.99,,2013-07-16 08:52:00,
2013-07-16 03:12:00,67.0,55.0,30.15,SSE,152,7.0,9.0,65,-99.99,,,-99.99,,2013-07-16 09:12:00,
2013-07-16 04:43:00,66.0,55.0,30.14,SSE,157,6.0,7.0,66,-99.99,,,-99.99,,2013-07-16 10:43:00,
2013-07-16 04:52:00,66.0,54.0,30.14,SE,145,3.0,5.0,66,-99.99,,,-99.99,,2013-07-16 10:52:00,
2013-07-16 05:11:00,66.0,54.0,30.14,SSE,162,6.0,7.0,66,-99.99,,,-99.99,,2013-07-16 11:11:00,
2013-07-16 05:22:00,66.0,54.0,30.14,SSE,160,6.0,6.0,66,-99.99,,,-99.99,,2013-07-16 11:22:00,
2013-07-16 05:42:00,66.0,55.0,30.14,ESE,106,5.0,6.0,67,-99.99,,,-99.99,,2013-07-16 11:42:00,
2013-07-16 06:43:00,65.0,55.0,30.15,SE,133,2.0,3.0,70,-99.99,,,-99.99,,2013-07-16 12:43:00,
2013-07-16 07:42:00,67.0,56.0,30.17,SSE,148,2.0,3.0,67,-99.99,,,-99.99,,2013-07-16 13:42:00,
2013-07-16 08:42:00,69.0,54.0,30.18,North,8,3.0,6.0,59,-99.99,,,-99.99,,2013-07-16 14:42:00,
2013-07-16 09:11:00,70.0,54.0,30.17,East,93,5.0,6.0,56,-99.99,,,-99.99,,2013-07-16 15:11:00,
2013-07-16 10:11:00,74.0,52.0,30.17,East,92,8.0,10.0,47,-99.99,,,-99.99,,2013-07-16 16:11:00,
2013-07-16 11:12:00,77.0,50.0,30.17,East,100,10.0,15.0,38,-99.99,,,-99.99,,2013-07-16 17:12:00,
2013-07-16 11:43:00,77.0,50.0,30.17,ESE,109,8.0,12.0,39,-99.99,,,-99.99,,2013-07-16 17:43:00,
2013-07-16 12:22:00,78.0,49.0,30.16,ENE,78,5.0,8.0,35,-99.99,,,-99.99,,2013-07-16 18:22:00,
2013-07-16 12:32:00,78.0,49.0,30.16,SSE,157,3.0,6.0,36,-99.99,,,-99.99,,2013-07-16 18:32:00,
2013-07-16 13:22:00,81.0,48.0,30.15,East,83,8.0,13.0,32,-99.99,,,-99.99,,2013-07-16 19:22:00,
2013-07-16 13:43:00,81.0,48.0,30.14,ENE,72,9.0,15.0,31,-99.99,,,-99.99,,2013-07-16 19:43:00,
2013-07-16 14:43:00,80.0,48.0,30.13,NW,305,3.0,6.0,33,-99.99,,,-99.99,,2013-07-16 20:43:00,
2013-07-16 15:01:00,81.0,48.0,30.13,ESE,112,8.0,13.0,31,-99.99,,,-99.99,,2013-07-16 21:01:00,
2013-07-16 15:32:00,82.0,47.0,30.12,SSE,160,9.0,15.0,29,-99.99,,,-99.99,,2013-07-16 21:32:00,
2013-07-16 16:01:00,83.0,46.0,30.11,SE,143,7.0,9.0,28,-99.99,,,-99.99,,2013-07-16 22:01:00,
2013-07-16 16:11:00,83.0,45.0,30.11,ESE,120,6.0,10.0,27,-99.99,,,-99.99,,2013-07-16 22:11:00,
2013-07-16 16:43:00,85.0,46.0,30.10,SE,126,13.0,16.0,26,-99.99,,,-99.99,,2013-07-16 22:43:00,
2013-07-16 17:32:00,85.0,46.0,30.09,SE,129,15.0,20.0,26,-99.99,,,-99.99,,2013-07-16 23:32:00,
2013-07-16 17:43:00,83.0,46.0,30.09,East,97,9.0,15.0,27,-99.99,,,-99.99,,2013-07-16 23:43:00,
2013-07-16 18:01:00,84.0,45.0,30.09,ESE,111,10.0,20.0,26,-99.99,,,-99.99,,2013-07-17 00:01:00,
2013-07-16 18:11:00,84.0,46.0,30.09,ESE,106,8.0,17.0,27,-99.99,,,-99.99,,2013-07-17 00:11:00,
2013-07-16 18:22:00,84.0,46.0,30.09,ESE,109,13.0,17.0,27,-99.99,,,-99.99,,2013-07-17 00:22:00,
2013-07-16 18:33:00,84.0,46.0,30.09,SE,124,10.0,14.0,27,-99.99,,,-99.99,,2013-07-17 00:33:00,
2013-07-16 19:22:00,82.0,49.0,30.10,SE,143,13.0,20.0,32,-99.99,,,-99.99,,2013-07-17 01:22:00,
2013-07-16 19:43:00,81.0,50.0,30.11,SE,130,14.0,16.0,34,-99.99,,,-99.99,,2013-07-17 01:43:00,
2013-07-16 20:11:00,80.0,52.0,30.12,SE,144,12.0,17.0,37,-99.99,,,-99.99,,2013-07-17 02:11:00,
2013-07-16 20:22:00,80.0,51.0,30.12,SSE,149,9.0,13.0,37,-99.99,,,-99.99,,2013-07-17 02:22:00,
2013-07-16 20:32:00,80.0,52.0,30.12,SSE,149,13.0,16.0,38,-99.99,,,-99.99,,2013-07-17 02:32:00,
2013-07-16 20:53:00,79.0,52.0,30.13,SSE,151,10.0,13.0,39,-99.99,,,-99.99,,2013-07-17 02:53:00,
2013-07-16 21:22:00,79.0,50.0,30.13,SSE,151,13.0,17.0,37,-99.99,,,-99.99,,2013-07-17 03:22:00,
2013-07-16 22:22:00,78.0,53.0,30.16,SE,140,10.0,16.0,42,-99.99,,,-99.99,,2013-07-17 04:22:00,
2013-07-16 23:02:00,77.0,53.0,30.18,SE,136,12.0,16.0,44,-99.99,,,-99.99,,2013-07-17 05:02:00,
2013-07-16 23:43:00,75.0,54.0,30.19,SE,133,14.0,18.0,48,-99.99,,,-99.99,,2013-07-17 05:43:00,
2013-07-16 23:52:00,75.0,54.0,30.19,SE,141,13.0,17.0,48,-99.99,,,-99.99,,2013-07-17 05:52:00,